Location: Unspecified
(0.0000°N, 0.0000°E)
Time: 17:26:25
(UTC+00:00)

CZ-3B DEB - Visible Passes

Search period start: 30 September 2023 00:00
Search period end: 10 October 2023 00:00
Orbit: 1032 x 41529 km, 26.4° (Epoch: 30 September)

Date Brightness Start Highest point End Pass type
(mag) Time Alt. Az. Time Alt. Az. Time Alt. Az.
30 Sep ? 20:53:08 10° WSW 22:35:57 52° WSW 03:45:48 10° W visible
01 Oct ? 22:41:30 10° WSW 00:01:16 27° W 02:45:29 10° W visible
02 Oct ? 18:11:48 10° E 20:33:24 22° ENE 21:52:55 10° ENE visible
03 Oct ? 17:06:59 10° E 21:53:55 45° ENE 23:47:56 10° ENE visible
04 Oct ? 13:21:46 10° SW 22:53:45 65° NE 01:27:59 10° ENE visible
05 Oct ? 14:52:55 10° SW 22:35:11 76° NNE 03:03:09 10° ENE visible
06 Oct ? 16:24:06 10° SW 21:47:51 84° NNE 04:36:07 10° ENE visible
07 Oct ? 17:56:17 10° SW 20:54:39 87° SSW 06:07:57 10° ENE daylight
08 Oct ? 19:30:53 10° WSW 21:21:07 66° WSW 03:50:34 10° WNW visible
